GW6177 Weather Reports


Display with metric or nautical units.
time (UTC)temp
F
wind
direction
speed
MPH
gust
MPH
rain 1hr
in
rain 24hr
in
rain mn
in
humidity
%
barometer
mb
20260510191709 71 13 3.0 6.0 0.00 0.02 0.02 29 1018.5
20260510191206 70 355 3.0 3.0 0.00 0.02 0.02 37 1018.4
20260510190703 70 203 2.0 5.0 0.00 0.02 0.02 28 1018.5
20260510190201 70 0 2.0 4.0 0.00 0.02 0.02 38 1018.4
20260510185657 70 338 2.0 9.0 0.00 0.02 0.02 34 1018.4
20260510185156 70 235 7.0 8.0 0.00 0.02 0.02 34 1018.4
20260510184652 70 99 2.0 7.0 0.00 0.02 0.02 33 1018.2
20260510184148 69 284 4.0 7.0 0.00 0.02 0.02 37 1018.5
20260510183644 69 212 1.0 4.0 0.00 0.02 0.02 36 1018.3
20260510183139 69 277 1.0 5.0 0.00 0.02 0.02 34 1018.1
20260510182636 68 322 1.0 7.0 0.00 0.02 0.02 34 1018.3
20260510182131 69 275 3.0 7.0 0.00 0.02 0.02 33 1018.3
20260510181628 69 216 3.0 5.0 0.00 0.02 0.02 40 1018.6
20260510181125 69 257 3.0 4.0 0.00 0.02 0.02 40 1018.5
20260510180621 68 275 1.0 6.0 0.00 0.02 0.02 33 1018.5
20260510180119 69 103 6.0 6.0 0.00 0.02 0.02 35 1018.6
20260510175614 69 87 2.0 3.0 0.00 0.02 0.02 38 1018.5
20260510175110 67 152 0.0 3.0 0.00 0.02 0.02 37 1018.6
20260510174608 68 232 5.0 6.0 0.00 0.02 0.02 36 1018.6
20260510174105 69 12 3.0 8.0 0.00 0.02 0.02 44 1018.6
20260510173601 69 305 1.0 4.0 0.00 0.02 0.02 46 1018.8
20260510173058 68 29 2.0 4.0 0.00 0.02 0.02 47 1018.7
20260510172553 67 336 4.0 9.0 0.00 0.02 0.02 44 1018.9
20260510172049 68 348 4.0 6.0 0.00 0.02 0.02 40 1018.9
20260510171546 68 356 2.0 6.0 0.00 0.02 0.02 43 1018.9
20260510171044 68 73 5.0 7.0 0.00 0.02 0.02 43 1019.1
20260510170540 68 190 0.0 4.0 0.00 0.02 0.02 40 1019.0
20260510170037 68 39 2.0 5.0 0.00 0.02 0.02 45 1019.0
20260510165532 68 102 2.0 5.0 0.00 0.02 0.02 43 1018.9
20260510165023 68 23 3.0 4.0 0.00 0.02 0.02 49 1018.8
20260510164520 67 87 2.0 4.0 0.00 0.02 0.02 43 1018.9
20260510164016 68 228 2.0 5.0 0.00 0.02 0.02 42 1018.9
20260510163506 68 105 2.0 6.0 0.00 0.02 0.02 42 1018.9
20260510163001 67 298 0.0 6.0 0.00 0.02 0.02 41 1019.0
20260510162458 68 129 3.0 7.0 0.00 0.02 0.02 43 1019.1
20260510161954 68 6 2.0 4.0 0.00 0.02 0.02 47 1019.1
20260510161444 68 109 4.0 7.0 0.00 0.02 0.02 46 1019.2
20260510160941 68 283 3.0 4.0 0.00 0.02 0.02 47 1019.0
20260510160438 68 60 6.0 6.0 0.00 0.02 0.02 51 1018.8
20260510155936 67 207 2.0 4.0 0.00 0.02 0.02 52 1019.0
20260510155434 67 20 3.0 5.0 0.00 0.02 0.02 53 1018.9
20260510154931 67 34 4.0 5.0 0.00 0.02 0.02 50 1018.9
20260510154427 67 108 2.0 5.0 0.00 0.02 0.02 54 1018.6
20260510153925 66 9 2.0 7.0 0.00 0.02 0.02 54 1018.6
20260510153422 66 288 8.0 9.0 0.00 0.02 0.02 57 1018.6
20260510152919 67 182 0.0 3.0 0.00 0.02 0.02 52 1018.4
20260510152417 66 78 2.0 4.0 0.00 0.02 0.02 58 1018.5
20260510151913 66 50 0.0 6.0 0.00 0.02 0.02 55 1018.3
20260510151410 66 67 2.0 4.0 0.00 0.02 0.02 57 1018.2
20260510150906 65 236 2.0 5.0 0.00 0.02 0.02 53 1018.2
20260510150402 65 353 0.0 4.0 0.00 0.02 0.02 56 1018.2
20260510145858 65 46 1.0 5.0 0.00 0.02 0.02 56 1018.2
20260510145355 64 296 0.0 5.0 0.00 0.02 0.02 59 1018.2
20260510144852 64 275 4.0 4.0 0.00 0.02 0.02 53 1017.9
20260510144349 64 266 2.0 4.0 0.00 0.02 0.02 59 1017.8
20260510143848 64 354 2.0 4.0 0.00 0.02 0.02 57 1018.0
20260510143345 64 71 1.0 4.0 0.00 0.02 0.02 58 1018.1
20260510142842 64 239 0.0 2.0 0.00 0.02 0.02 55 1018.0
20260510142338 63 51 6.0 8.0 0.00 0.02 0.02 61 1017.8
20260510141835 63 249 0.0 4.0 0.00 0.02 0.02 63 1017.8
20260510141333 62 359 2.0 4.0 0.00 0.02 0.02 60 1017.7
20260510140830 61 64 0.0 2.0 0.00 0.02 0.02 59 1017.6
20260510140326 61 251 2.0 5.0 0.00 0.02 0.02 58 1017.7
20260510135825 61 84 3.0 3.0 0.00 0.02 0.02 62 1017.6
20260510135321 60 168 0.0 2.0 0.00 0.02 0.02 62 1017.5
20260510134819 59 221 4.0 4.0 0.00 0.02 0.02 62 1017.7
20260510134316 59 353 2.0 3.0 0.00 0.02 0.02 61 1017.5
20260510133811 59 23 0.0 5.0 0.00 0.02 0.02 61 1017.3
20260510133308 59 106 2.0 3.0 0.00 0.02 0.02 67 1017.5
20260510132803 59 1 2.0 2.0 0.00 0.02 0.02 68 1017.4
20260510132305 58 42 2.0 3.0 0.00 0.02 0.02 67 1017.3
20260510131758 57 325 0.0 6.0 0.00 0.02 0.02 64 1017.4
20260510131256 57 32 2.0 5.0 0.00 0.02 0.02 68 1017.3
20260510130752 57 283 2.0 4.0 0.00 0.02 0.02 69 1017.3
20260510130249 56 291 0.0 4.0 0.00 0.02 0.02 70 1017.1
20260510125746 56 79 0.0 3.0 0.00 0.02 0.02 73 1017.0
20260510125241 56 167 1.0 3.0 0.00 0.02 0.02 72 1017.1
20260510124738 55 167 1.0 2.0 0.00 0.02 0.02 71 1017.0
20260510124236 55 316 2.0 3.0 0.00 0.02 0.02 70 1016.6
20260510123731 55 336 0.0 2.0 0.00 0.02 0.02 71 1016.7
20260510123227 55 89 0.0 2.0 0.00 0.02 0.02 73 1016.9
20260510122724 55 278 0.0 2.0 0.00 0.02 0.02 75 1016.5
20260510122220 54 310 1.0 2.0 0.00 0.02 0.02 74 1016.5
20260510121716 54 279 2.0 2.0 0.00 0.02 0.02 75 1016.5
20260510121214 54 272 0.0 3.0 0.00 0.02 0.02 73 1016.3
20260510120711 54 292 2.0 2.0 0.00 0.02 0.02 74 1016.2
20260510120208 54 286 0.0 2.0 0.00 0.02 0.02 75 1016.0
20260510115703 53 101 1.0 2.0 0.00 0.02 0.02 75 1015.7
20260510115202 53 264 2.0 3.0 0.00 0.02 0.02 77 1015.6
20260510114657 53 277 0.0 2.0 0.00 0.02 0.02 79 1015.8
20260510114154 52 283 2.0 5.0 0.02 0.02 0.02 80 1015.6
20260510113649 52 322 1.0 3.0 0.02 0.02 0.02 84 1015.6
20260510113146 51 200 0.0 2.0 0.00 0.02 0.02 88 1015.4
20260510112643 50 354 1.0 2.0 0.00 0.02 0.02 93 1015.3
20260510112140 50 0 0.0 1.0 0.00 0.02 0.02 96 1015.6
20260510111636 50 329 0.0 1.0 0.00 0.02 0.02 97 1015.2
20260510111132 50 34 2.0 2.0 0.00 0.02 0.02 97 1015.2
20260510110627 50 36 1.0 1.0 0.00 0.02 0.02 97 1015.0
20260510110125 50 280 0.0 1.0 0.00 0.02 0.02 96 1015.0
20260510105620 50 31 1.0 2.0 0.00 0.02 0.02 96 1015.0
20260510105115 50 71 1.0 2.0 0.00 0.02 0.02 96 1014.8
20260510104612 50 69 0.0 1.0 0.00 0.02 0.02 96 1014.8
20260510104109 50 55 1.0 2.0 0.00 0.02 0.02 96 1014.6
20260510103606 50 74 0.0 2.0 0.00 0.02 0.02 96 1014.7
20260510103101 50 45 1.0 1.0 0.00 0.02 0.02 96 1014.6
20260510102557 51 44 0.0 1.0 0.00 0.02 0.02 96 1014.6
20260510102053 51 33 0.0 1.0 0.00 0.02 0.02 96 1014.5
20260510101551 51 13 0.0 1.0 0.00 0.02 0.02 96 1014.5
20260510101050 51 34 0.0 1.0 0.00 0.02 0.02 96 1014.6
20260510100545 51 293 0.0 0.0 0.00 0.02 0.02 95 1014.4
20260510100043 51 289 0.0 1.0 0.00 0.02 0.02 95 1014.4
20260510095539 51 277 0.0 1.0 0.00 0.02 0.02 95 1013.8
20260510095038 51 283 0.0 1.0 0.00 0.02 0.02 95 1013.8
20260510094533 51 32 0.0 2.0 0.00 0.02 0.02 94 1013.6
20260510094028 51 71 1.0 2.0 0.00 0.02 0.02 93 1013.5
20260510093524 52 73 0.0 2.0 0.00 0.02 0.02 92 1013.3
20260510093021 52 63 1.0 2.0 0.00 0.02 0.02 91 1013.3
20260510092518 53 51 2.0 2.0 0.00 0.02 0.02 90 1013.1
20260510092017 53 49 1.0 1.0 0.00 0.02 0.02 88 1013.1
20260510091515 54 70 1.0 2.0 0.00 0.02 0.02 84 1012.7
20260510091010 54 336 0.0 1.0 0.00 0.02 0.02 83 1012.5
20260510090508 55 25 1.0 3.0 0.00 0.02 0.02 83 1012.5
20260510090004 55 119 0.0 2.0 0.00 0.02 0.02 83 1012.3
20260510085458 55 344 1.0 2.0 0.00 0.02 0.02 85 1012.4
20260510084954 54 283 2.0 2.0 0.00 0.02 0.02 87 1012.2
20260510084452 55 264 1.0 2.0 0.00 0.02 0.02 88 1012.2
20260510083948 54 353 0.0 2.0 0.00 0.02 0.02 91 1012.1
20260510083445 54 232 0.0 2.0 0.00 0.02 0.02 93 1011.9
20260510082940 54 277 0.0 4.0 0.00 0.02 0.02 95 1012.0
20260510082438 54 276 0.0 2.0 0.00 0.02 0.02 96 1012.2
20260510081937 54 328 0.0 1.0 0.00 0.02 0.02 96 1012.3
20260510081433 54 310 1.0 1.0 0.00 0.02 0.02 96 1012.4
20260510080930 54 299 0.0 1.0 0.00 0.02 0.02 96 1012.2
20260510080428 54 317 0.0 2.0 0.00 0.02 0.02 96 1012.2
20260510075925 54 290 1.0 1.0 0.00 0.02 0.02 96 1012.2
20260510075424 54 283 0.0 0.0 0.00 0.02 0.02 96 1012.1
20260510074920 54 61 1.0 1.0 0.00 0.02 0.02 96 1011.9
20260510074417 54 328 2.0 2.0 0.00 0.02 0.02 96 1012.1
20260510073914 54 58 0.0 2.0 0.00 0.02 0.02 95 1011.8
20260510073409 54 6 0.0 2.0 0.00 0.02 0.02 95 1011.8
20260510072906 55 321 0.0 2.0 0.00 0.02 0.02 95 1011.8
20260510072402 55 38 0.0 0.0 0.00 0.02 0.02 95 1012.1
20260510071858 55 35 0.0 2.0 0.00 0.02 0.02 95 1011.9
20260510071354 55 50 0.0 2.0 0.00 0.02 0.02 95 1012.0
20260510070853 55 308 0.0 2.0 0.00 0.02 0.02 95 1012.1
20260510070350 55 336 0.0 1.0 0.00 0.02 0.02 95 1012.0
20260510065850 55 326 0.0 1.0 0.00 0.02 0.02 96 1011.9
20260510065347 56 308 1.0 2.0 0.00 0.02 0.02 96 1012.0
20260510064843 56 317 1.0 3.0 0.00 0.02 0.02 96 1011.7
20260510064342 56 345 0.0 1.0 0.00 0.02 0.02 96 1011.7
20260510063838 56 11 1.0 2.0 0.00 0.02 0.02 96 1011.7
20260510063334 56 352 0.0 1.0 0.00 0.02 0.02 96 1011.9
20260510062831 56 336 0.0 2.0 0.00 0.02 0.02 96 1012.1
20260510062326 56 20 1.0 2.0 0.00 0.02 0.02 95 1011.9
20260510061822 57 20 1.0 1.0 0.00 0.02 0.02 95 1011.9
20260510061319 57 0 2.0 2.0 0.00 0.02 0.02 95 1012.2
20260510060815 57 341 0.0 2.0 0.00 0.02 0.02 95 1012.1
20260510060312 57 34 0.0 2.0 0.00 0.02 0.02 95 1012.3
20260510055809 57 20 1.0 2.0 0.00 0.02 0.02 95 1012.4
20260510055308 57 13 0.0 1.0 0.00 0.02 0.02 95 1012.2
20260510054807 57 339 2.0 2.0 0.00 0.02 0.02 95 1012.4
20260510054304 57 345 2.0 2.0 0.00 0.02 0.02 94 1012.3
20260510053804 57 67 2.0 3.0 0.00 0.02 0.02 94 1012.4
20260510053259 57 7 1.0 2.0 0.00 0.02 0.02 94 1012.3
20260510052756 58 6 1.0 2.0 0.00 0.02 0.02 94 1012.6
20260510052251 58 13 0.0 0.0 0.02 0.02 0.02 93 1012.3
20260510051748 58 69 1.0 2.0 0.05 0.02 0.02 93 1012.3
20260510051245 58 32 2.0 2.0 0.07 0.02 0.02 93 1012.5
20260510050742 58 69 2.0 2.0 0.12 0.01 0.01 93 1012.6
20260510050239 59 209 0.0 2.0 0.19 0.00 0.00 92 1012.5
20260510045735 59 63 2.0 3.0 0.17 0.10 0.10 92 1012.5
20260510045232 59 56 2.0 3.0 0.17 0.09 0.09 92 1013.0
20260510044729 60 8 0.0 4.0 0.21 0.07 0.07 91 1013.0
20260510044227 60 157 2.0 4.0 0.21 0.06 0.06 91 1013.2
20260510043721 60 3 0.0 5.0 0.12 0.04 0.04 89 1013.3
20260510043219 60 283 2.0 6.0 0.07 0.02 0.02 88 1013.1
20260510042716 61 259 3.0 4.0 0.02 0.02 0.02 86 1012.9
20260510042212 61 280 4.0 5.0 0.00 0.01 0.01 86 1012.6
20260510041709 61 290 3.0 5.0 0.00 0.01 0.01 86 1012.4
20260510041206 61 250 2.0 6.0 0.02 0.01 0.01 85 1012.1
20260510040703 62 238 2.0 10.0 0.05 0.01 0.01 85 1011.9
20260510040200 63 256 5.0 11.0 0.00 0.00 0.00 79 1011.6
20260510035655 62 338 3.0 3.0 0.00 0.00 0.00 82 1010.7
20260510035151 61 355 0.0 2.0 0.00 0.00 0.00 81 1010.0
20260510034647 61 27 1.0 1.0 0.00 0.00 0.00 86 1009.8
20260510034145 60 66 1.0 2.0 0.00 0.00 0.00 86 1009.7
20260510033641 60 41 1.0 2.0 0.00 0.00 0.00 86 1009.5
20260510033139 60 45 0.0 2.0 0.00 0.00 0.00 85 1009.6
20260510032635 59 72 2.0 2.0 0.00 0.00 0.00 85 1009.4
20260510032130 59 69 2.0 2.0 0.00 0.00 0.00 85 1009.6
20260510031625 59 73 1.0 2.0 0.00 0.00 0.00 84 1009.5
20260510031122 59 76 1.0 2.0 0.00 0.00 0.00 84 1009.5
20260510030617 59 87 1.0 2.0 0.00 0.00 0.00 84 1009.2
20260510030115 59 75 2.0 2.0 0.00 0.00 0.00 84 1009.4
20260510025612 59 84 2.0 2.0 0.00 0.00 0.00 85 1009.3
20260510025109 59 73 2.0 2.0 0.00 0.00 0.00 83 1009.4
20260510024606 59 79 2.0 2.0 0.00 0.00 0.00 82 1009.1
20260510024102 59 81 1.0 2.0 0.00 0.00 0.00 81 1009.1
20260510023558 59 50 1.0 1.0 0.00 0.00 0.00 82 1009.1
20260510023056 59 81 1.0 2.0 0.00 0.00 0.00 82 1009.1
20260510022555 59 55 1.0 2.0 0.00 0.00 0.00 82 1009.0
20260510022055 60 82 1.0 2.0 0.00 0.00 0.00 82 1009.1
20260510021552 60 56 2.0 2.0 0.00 0.00 0.00 80 1008.8
20260510021050 60 80 1.0 2.0 0.00 0.00 0.00 80 1008.9
20260510020544 60 78 1.0 2.0 0.00 0.00 0.00 81 1008.6
20260510020040 60 72 1.0 2.0 0.00 0.00 0.00 80 1008.5
20260510015536 61 81 1.0 2.0 0.00 0.00 0.00 81 1008.7
20260510015031 61 81 1.0 2.0 0.00 0.00 0.00 81 1008.5
20260510014528 61 83 1.0 2.0 0.00 0.00 0.00 80 1008.3
20260510014026 62 71 1.0 2.0 0.00 0.00 0.00 81 1008.4
20260510013520 62 76 2.0 2.0 0.00 0.00 0.00 79 1008.5
20260510013016 62 52 2.0 2.0 0.00 0.00 0.00 77 1008.4
20260510012510 63 85 1.0 2.0 0.00 0.00 0.00 77 1008.4
20260510012006 63 62 1.0 2.0 0.00 0.00 0.00 75 1008.4
20260510011501 63 75 1.0 2.0 0.00 0.00 0.00 73 1008.3
20260510010957 64 62 2.0 2.0 0.00 0.00 0.00 76 1007.9
20260510010454 64 39 1.0 1.0 0.00 0.00 0.00 76 1008.1
20260510005951 65 55 0.0 1.0 0.00 0.00 0.00 74 1008.1
20260510005447 65 37 0.0 2.0 0.00 0.00 0.00 73 1007.8
20260510004945 66 53 0.0 1.0 0.00 0.00 0.00 72 1007.9
20260510004441 67 57 1.0 1.0 0.00 0.00 0.00 68 1007.8
20260510003940 67 48 1.0 1.0 0.00 0.00 0.00 67 1007.9
20260510003436 68 49 0.0 2.0 0.00 0.00 0.00 63 1007.7
20260510002936 69 54 2.0 2.0 0.00 0.00 0.00 62 1007.6
20260510002433 69 44 0.0 2.0 0.00 0.00 0.00 62 1007.6
20260510001929 70 9 0.0 1.0 0.00 0.00 0.00 59 1007.6
20260510001427 70 53 0.0 1.0 0.00 0.00 0.00 59 1007.6
20260510000925 71 62 0.0 1.0 0.00 0.00 0.00 57 1007.7
20260510000421 72 50 0.0 1.0 0.00 0.00 0.00 57 1007.7
20260509235917 73 29 0.0 1.0 0.00 0.00 0.00 54 1007.5
20260509235414 73 37 0.0 1.0 0.00 0.00 0.00 53 1007.4
20260509234910 75 17 2.0 3.0 0.00 0.00 0.00 47 1007.3
20260509234407 77 333 0.0 1.0 0.00 0.00 0.00 48 1007.3
20260509233905 80 333 0.0 3.0 0.00 0.00 0.00 45 1007.6
20260509233403 80 321 0.0 1.0 0.00 0.00 0.00 42 1007.5
20260509232858 80 49 0.0 1.0 0.00 0.00 0.00 43 1007.5
20260509232356 80 55 0.0 2.0 0.00 0.00 0.00 40 1007.4
20260509231852 79 36 0.0 2.0 0.00 0.00 0.00 44 1007.4
20260509231349 79 319 1.0 2.0 0.00 0.00 0.00 45 1007.3
20260509230847 79 291 2.0 4.0 0.00 0.00 0.00 38 1007.4
20260509230343 80 319 1.0 3.0 0.00 0.00 0.00 40 1007.1
20260509225839 79 0 0.0 3.0 0.00 0.00 0.00 42 1007.4
20260509225336 80 277 2.0 3.0 0.00 0.00 0.00 44 1007.2
20260509224832 80 310 3.0 4.0 0.00 0.00 0.00 39 1007.3
20260509224328 80 246 1.0 2.0 0.00 0.00 0.00 42 1007.4
20260509223825 80 272 2.0 4.0 0.00 0.00 0.00 38 1007.2
20260509223322 80 252 1.0 4.0 0.00 0.00 0.00 44 1007.3
20260509222819 80 283 0.0 4.0 0.00 0.00 0.00 41 1007.3
20260509222314 80 171 0.0 2.0 0.00 0.00 0.00 44 1007.3
20260509221810 79 313 2.0 5.0 0.00 0.00 0.00 46 1007.2
20260509221308 80 269 2.0 5.0 0.00 0.00 0.00 41 1007.2
20260509220802 80 309 4.0 6.0 0.00 0.00 0.00 44 1007.2
20260509220259 80 359 3.0 4.0 0.00 0.00 0.00 38 1007.3
20260509215754 80 251 2.0 4.0 0.00 0.00 0.00 39 1007.2
20260509215251 79 271 4.0 4.0 0.00 0.00 0.00 40 1007.1
20260509214748 79 310 4.0 5.0 0.00 0.00 0.00 37 1007.3
20260509214245 79 259 3.0 5.0 0.00 0.00 0.00 37 1007.3
20260509213742 79 229 3.0 5.0 0.00 0.00 0.00 37 1007.2
20260509213237 79 313 2.0 4.0 0.00 0.00 0.00 39 1007.2
20260509212735 79 296 3.0 4.0 0.00 0.00 0.00 41 1007.2
20260509212232 78 307 3.0 5.0 0.00 0.00 0.00 42 1007.2
20260509211728 79 259 4.0 6.0 0.00 0.00 0.00 40 1007.4
20260509211225 79 299 3.0 5.0 0.00 0.00 0.00 38 1007.1
20260509210721 79 261 3.0 3.0 0.00 0.00 0.00 47 1007.2
20260509210219 78 248 4.0 5.0 0.00 0.00 0.00 42 1007.3
20260509205718 78 214 3.0 7.0 0.00 0.00 0.00 46 1007.4
20260509205213 78 232 2.0 4.0 0.00 0.00 0.00 47 1007.1
20260509204709 78 311 4.0 5.0 0.00 0.00 0.00 47 1007.4
20260509204206 78 236 3.0 7.0 0.00 0.00 0.00 44 1007.6
20260509203701 78 151 2.0 6.0 0.00 0.00 0.00 47 1007.6
20260509203200 78 264 4.0 11.0 0.00 0.00 0.00 48 1007.4
20260509202655 78 354 2.0 5.0 0.00 0.00 0.00 52 1007.5
20260509202150 77 263 3.0 6.0 0.00 0.00 0.00 55 1007.4
20260509201646 78 348 5.0 6.0 0.00 0.00 0.00 44 1007.6
20260509201144 78 278 2.0 5.0 0.00 0.00 0.00 52 1007.7
20260509200639 78 317 5.0 5.0 0.00 0.00 0.00 48 1007.7
20260509200134 77 264 3.0 9.0 0.00 0.00 0.00 53 1007.8
20260509195630 78 250 3.0 6.0 0.00 0.00 0.00 48 1007.7
20260509195125 78 217 0.0 2.0 0.00 0.00 0.00 51 1007.8
20260509194625 77 104 1.0 4.0 0.00 0.00 0.00 51 1007.6
20260509194122 77 48 3.0 7.0 0.00 0.00 0.00 51 1007.7
20260509193618 77 333 6.0 8.0 0.00 0.00 0.00 52 1007.7
20260509193114 77 265 6.0 6.0 0.00 0.00 0.00 57 1007.6
20260509192611 77 283 3.0 5.0 0.00 0.00 0.00 53 1007.6
20260509192106 77 184 2.0 6.0 0.00 0.00 0.00 54 1007.6